Погода в Магдагачи

Погода в Магдагачи : погода сейчас, прогноз погоды и архив. Всё, что Вы хотите узнать о погоде в Магдагачи!

Хотите узнать прогноз погоды в Магдагачи? Тогда Вам сюда: Погода в Магдагачи

Поиск расширенной информации на нашем сайте:

Другие новости

Новости СМИ2

Главная страница сайта

Новости сайта

03.07.2017

Напоминаем, что на нашем специализированном сайте Метеоцентр.Азия вы можете получить высокодетализированные автоматические прогнозы погоды по пунктам России, СНГ и мира в авиационном формате (включающие направление и скорость ветра, видимость, явления погоды, количество и форму облачности, нижнюю и верхнюю границу облачности).


Погода в Магдагачи - сегодня

Время (UTC), дата Ветер
(°,м/с) 
Видим.   Явления Облачность Т
(°С)
Тd
(°С)
f(%) Тe
(°С)
Pmin
(гПа)
dP
(гПа)
Po
(мм)
O2
(г/м3)
Тmin Tmax R s Состояние
почвы
09 26.07.17 050 (СВ) 20000 м  в посл. час гроза{ливн. осадки}  8/6 600 м кучево-дожд., средняя, верхняя 
[Cb calv|Ac trans|Ci fib]
+21.2 +15.7 71 +32  1002.9  721  266           
12 26.07.17 050 (СВ) 20000 м  {гроза, ливн. осадки}  8/5 600 м кучево-дожд., средняя, верхняя 
[Cb calv|Ac trans|Ci fib]
+19.2 +16 82 +32  1003.7  0.5  722  268    +22.6     
15 26.07.17 360 (С) 20000 м  зарница  6/3 600 м кучево-дожд., средняя, верхняя 
[Cb calv|Ac trans|Ci fib]
+15.4 +13.1 86 +21  1005.9  1.5  723  273           
18 26.07.17 360 (С) 20000 м    5/0 средняя, верхняя 
[Ac trans|Ci fib]
+12.2 +11.4 95 +16  1006.3  723  277           
21 26.07.17 360 (С) 20000 м    3/0 средняя 
[Ac trans]
+10.2 +9.4 95 +11  1007.2  0.6  723  279           
00 27.07.17 020 (С) 20000 м    4/4 1000 м 
[Sc]
+19 +13.6 71 +27  1007.2  1.2  724  270  +9.9        влажная 
03 27.07.17 020 (С) 20000 м    4/4 1000 м 
[Cu med, cong]
+22.4 +11.8 51 +27  1006.8  724  267           
06 27.07.17 290 (З) 20000 м    5/5 1000 м 
[Cu med, cong]
+24.8 +9.7 38 +26  1005.8  -0.7  724  266           
09 27.07.17 320 (СЗ) 20000 м    3/3 1000 м 
[Cu hum]
+25.6 +8.1 33 +26  1005.6  724  265           
12 27.07.17 тихо ()   20000 м    ясно 
+20 +13.2 65 +27  1006.3  724  269    +25.6       
15 27.07.17 тихо ()   20000 м    ясно 
+17.2 +11.7 70 +21  1007.7  0.9  724  272           
18 27.07.17 тихо ()   20000 м    ясно 
+13.5 +9.8 78 +15  1009.5  1.1  725  277           
21 27.07.17 тихо ()   20000 м    3/0 средняя 
[Ac trans]
+12.2 +9 81 +13  1010.2  0.6  726  278           
00 28.07.17 тихо ()   20000 м    5/3 600 м кучево-дожд., средняя 
[Cb calv|Ac trans]
+15 +11.5 80 +19  1010.1  0.3  726  275  +11.9        влажная 
03 28.07.17 нст () 20000 м    ясно 
+25 +14.5 52 +34  1007.8  -0.8  725  265           
06 28.07.17 320 (СЗ) 20000 м    4/4 1000 м 
[Cu med, cong]
+28.2 +11.6 36 +32  1005.8  -1.5  724  262           
09 28.07.17 180 (Ю) 20000 м    ясно 
+28 +9.6 32 +29  1005.7  -0.3  724  263           
12 28.07.17 тихо ()   20000 м    3/3 1000 м 
[Sc]
+20.6 +15.6 73 +31  1006.6  0.1  724  268    +28.5       
15 28.07.17 тихо ()   20000 м    3/3 1000 м 
[Sc]
+19 +15.5 80 +30  1006.9  724  269           
18 28.07.17 тихо ()   20000 м    3/3 1000 м 
[Sc]
+14.6 +12 84 +19  1007.6  724  275           
21 28.07.17 тихо ()   20000 м    5/0 средняя, верхняя 
[Ac trans|Ci fib]
+12.8 +11.3 91 +16  1008.1  0.2  724  277           
00 29.07.17 050 (СВ) 20000 м    4/0 средняя 
[Ac trans]
+20 +15.8 77 +31  1008.1  1.2  725  269  +12.3        влажная 
03 29.07.17 180 (Ю) 20000 м    5/0 средняя 
[Ac trans]
+25.6 +16.6 58 +38  1007.1  -0.2  725  263           
06 29.07.17 230 (ЮЗ) 20000 м    8/3 1000 м средняя, верхняя 
[Cu hum|Ac trans|Ci fib]
+27 +16.2 52 +39  1006.2  -0.8  724  262           
09 29.07.17 230 (ЮЗ) 20000 м    6/0 средняя, верхняя 
[Ac trans|Ci fib]
+25.8 +13.6 47 +33  1006.2  -0.1  724  264           
Время (UTC), дата Ветер
(°,м/с) 
Видим.   Явления Облачность Т
(°С)
Тd
(°С)
f(%) Тe
(°С)
Pmin
(гПа)
dP
(гПа)
Po
(мм)
O2
(г/м3)
Тmin Tmax R s Состояние
почвы

Для получения пояснительной информации подведите курсор к названию столбца.

ПОГОДА в Магдагачи - архив

Всё, что Вы хотите узнать о погоде в Магдагачи - удобно и подробно!

Выберите нужную дату (начиная с 1 января 2015* года) и нажмите кнопку "Найти".
Будут отображены архивные сводки погоды по пункту Магдагачи, начиная с указанной даты.


Отображать данные в формате CSV (для использования в таблицах Excel)


Внимание! Наш архив погоды предназначен исключительно для личного некоммерческого использования в познавательных целях. Если Вам необходимы официальные справки о состоянии погоды (для производственных, юридических, коммерческих и т.п. целей), обращайтесь в органы Росгидромета.

*Примечание: данная дата относится к архиву по метеостанциям СССР (Россия, СНГ, Балтия).
Архив по метеостанциям Зарубежной Европы и Азии (кроме Китая) хранится 10 дней, по другим регионам земного шара (Китай, Африка, Америка, Австралия, Океания) - 1 день.

Магдагачи - район местоположения метеостанции


Название, широта, долгота, высота метеостанции:
Магдагачи 53.5°ш. 125.8°д. 370 м над ур. моря [Российская Федерация]

Дополнительная информация

В oтличие oт бoльшинства пoгoдных сайтoв мы публикуем пoдрoбную метеoинфoрмацию в детальнoм прoфессиoнальнoм фoрмате.

Характеристики температуры и влажнoсти вoздуха измеряются на высoте 2 м в тени вдали oт зданий и деревьев.
Скoрoсть ветра измеряется на высoте 10 м (на урoвне рoста челoвека скoрoсть ветра ниже в 1.5-2 раза). Если метеoстанция нахoдится в гoрoде или в лесу, тo скoрoсть ветра занижена на 2-4 м/с пo сравнению с oткрытым местoм. Скoрoсть ветра над акватoриями крупных рек и oзёр, а также на вершинах хoлмoв на 2-5 м/с выше, чем в oбычных услoвиях.
Атмoсфернoе давление в разных тoчках местнoсти мoжет значительнo oтличаться oт давления на метеoстанции, в зависимoсти oт услoвий рельефа (при пoдъёме на 10 м давление пoнижается примернo на 1 мм рт.ст.).